Content
SEND FEEDBACK

Daily
Averages
Monthly
Summary
Greenland

THULE, GREENLAND


Home > North America > Greenland
Elevation: 194 feet     Latitude: 76 32N     Longitude: 068 30W

WEATHER
 
SELECT A DAY
Number of Records: 219,550;   Date Range: 6/30/96 - 11/26/14
 
SHARE

PRINT THIS DATA

[ ← Previous Day ]
WEATHER ALMANAC - FEBRUARY 13, 2013
[ Next Day → ]
[ °C ]   °F
Weather ElementAverageHighLow
Temperature-0.1 °F7 °F (5:58 am)-4.4 °F (5:58 pm)
Dewpoint-10.4 °F-4.4 °F (5:58 am)-14.8 °F (6:58 pm)
Humidity62 %67 % (12:58 pm)53 % (10:58 am)
Barometer29.89 in30.00 in (5:59 pm)29.73 in (2:58 am)
Wind Speed17.3 mph40.3 mph (2:36 pm)
Wind Gust44.9 mph (2:36 pm)
Weather ElementAverage
Visibility5.8 mi
Wind DirectionESE (109.2 °)

Weather ElementTotal
Precipitation---
Heating Degree Days63.7 (Base 65)
Averaged from 50 records on February 13, 2013
WEATHER CONDITIONS BREAKOUT
WIND DIRECTION BREAKOUT
WEATHER BY HOUR - FEBRUARY 13, 2013
[ °C ]   °F
Local TimeTemperatureDewpointHumidityBarometerVisibilityWind DirectionWind SpeedGust SpeedPrecipitationEventsConditions
1:58 AM0.5 °F-10.1 °F61 %29.74 in6.2 miEast (90°)6.9 mphClear
2:58 AM6.1 °F-5.3 °F60 %29.73 in6.2 miEast (100°)3.5 mphMostly Cloudy
3:58 AM4.8 °F-4.9 °F64 %29.73 in6.2 miEast (80°)4.6 mphClear
4:58 AM6.6 °F-4.9 °F59 %29.75 in6.2 miSSE (160°)13.8 mphScattered Clouds
5:58 AM7.0 °F-4.4 °F60 %29.77 in6.2 miEast (100°)19.6 mph29.9 mphPartly Cloudy
6:41 AM6.8 °F-5.8 °F56 %29.80 in6.2 miSSE (150°)15.0 mphClear
6:56 AM5.0 °F-5.8 °F61 %29.80 in6.2 miESE (120°)13.8 mphClear
6:58 AM4.8 °F-6.5 °F60 %29.78 in6.2 miESE (120°)12.7 mphClear
7:04 AM5.0 °F-5.8 °F61 %29.80 in6.2 miEast (80°)13.8 mph21.9 mphClear
7:05 AM5.0 °F-5.8 °F61 %29.80 in6.2 miENE (70°)12.7 mph21.9 mphClear
7:58 AM2.8 °F-7.4 °F62 %29.80 in6.2 miESE (110°)18.4 mphClear
8:25 AM1.4 °F-7.6 °F66 %29.83 in6.2 miSE (140°)20.7 mphPartly Cloudy
8:58 AM1.9 °F-8.9 °F61 %29.83 in6.2 miCalmClear
9:33 AM1.4 °F-9.4 °F61 %29.85 in6.2 miESE (110°)16.1 mphPartly Cloudy
9:35 AM1.4 °F-9.4 °F61 %29.86 in6.2 miENE (70°)16.1 mphPartly Cloudy
9:36 AM1.4 °F-9.4 °F61 %29.86 in6.2 miNE (50°)15.0 mphPartly Cloudy
9:37 AM1.4 °F-9.4 °F61 %29.86 in6.2 miNE (40°)15.0 mphPartly Cloudy
9:38 AM1.4 °F-9.4 °F61 %29.86 in6.2 miNNE (20°)12.7 mphPartly Cloudy
9:58 AM3.0 °F-8.5 °F59 %29.85 in6.2 miCalmClear
10:58 AM3.4 °F-10.5 °F53 %29.86 in6.2 miNorth (360°)11.5 mphClear
11:58 AM0.1 °F-10.8 °F60 %29.89 in6.2 miESE (120°)20.7 mph29.9 mphPartly Cloudy
12:58 PM-1.8 °F-10.3 °F67 %29.92 in6.2 miEast (100°)19.6 mphClear
1:58 PM-1.7 °F-12.1 °F61 %29.93 in6.2 miESE (120°)18.4 mph35.7 mphClear
1:59 PM-2.2 °F-11.2 °F66 %29.95 in6.2 miEast (80°)15.0 mphClear
2:01 PM-2.2 °F-11.2 °F66 %29.95 in6.2 miNE (50°)12.7 mphClear
2:02 PM-2.2 °F-11.2 °F66 %29.95 in6.2 miNNE (30°)15.0 mphClear
2:03 PM-2.2 °F-11.2 °F66 %29.95 in6.2 miNorth (10°)15.0 mphClear
2:35 PM-2.2 °F-11.2 °F66 %29.92 in2.5 miESE (110°)38.0 mph43.7 mphHaze
2:36 PM-2.2 °F-11.2 °F66 %29.91 inESE (110°)40.3 mph44.9 mphHaze
2:37 PM-2.2 °F-11.2 °F66 %29.92 in1.7 miESE (120°)35.7 mph44.9 mphHaze
2:45 PM-2.2 °F-11.2 °F66 %29.93 inESE (120°)34.5 mph44.9 mphHaze
2:52 PM-2.2 °F-11.2 °F66 %29.93 in2.5 miSE (130°)31.1 mph36.8 mphHaze
2:55 PM-2.2 °F-11.2 °F66 %29.94 inSE (140°)26.5 mphHaze
2:58 PM-1.8 °F-10.8 °F66 %29.91 in5.0 miSE (130°)25.3 mphHaze
3:12 PM-2.2 °F-13.0 °F60 %29.94 in2.5 miSE (140°)25.3 mphHaze
3:18 PM-2.2 °F-11.2 °F66 %29.94 inSE (140°)28.8 mphHaze
3:58 PM-1.7 °F-13.5 °F57 %29.92 in6.2 miESE (120°)25.3 mph39.1 mphClear
4:20 PM-2.2 °F-13.0 °F60 %29.97 in6.2 miSE (140°)19.6 mph29.9 mphClear
4:58 PM-3.6 °F-13.2 °F64 %29.96 in6.2 miEast (100°)21.9 mph32.2 mphClear
5:58 PM-4.4 °F-14.4 °F62 %29.96 in6.2 miESE (120°)19.6 mph27.6 mphClear
5:59 PM-4.0 °F-13.0 °F65 %30.00 in6.2 miEast (100°)13.8 mph27.6 mphClear
6:05 PM-4.0 °F-13.0 °F65 %30.00 in6.2 miSE (130°)23.0 mph27.6 mphClear
6:58 PM-3.3 °F-14.8 °F58 %29.99 in6.2 miESE (120°)3.5 mphClear
7:25 PM-4.0 °F-14.8 °F60 %30.00 in6.2 miSouth (170°)18.4 mph27.6 mphClear
7:45 PM-4.0 °F-14.8 °F60 %30.00 in6.2 miESE (120°)12.7 mph26.5 mphClear
7:58 PM-2.7 °F-14.4 °F57 %29.97 in6.2 miVariable6.9 mphClear
8:58 PM-3.1 °F-14.3 °F59 %29.96 in6.2 miSE (130°)21.9 mph32.2 mphClear
9:58 PM-2.6 °F-12.8 °F62 %29.96 in6.2 miESE (120°)18.4 mphClear
10:58 PM-2.2 °F-11.9 °F63 %29.96 in6.2 miESE (110°)13.8 mphClear
11:58 PM-1.1 °F-13.0 °F57 %29.95 in6.2 miCalm (360°)Clear
Hourly data recorded from BGTL, located miles away from Thule, Greenland







STORIES FROM OUR PARTNERS